Location: Eaton
(41.3139°N, 82.0207°W)
Time: 13:08:15
(UTC+00:00)

USA 215 - Pass Details

Date: 17 June 2021
Orbit: 1100 x 1107 km, 123.0° (Epoch: 22 June)

Event Time Altitude Azimuth Distance (km) Brightness Sun altitude
Rises 03:00:21 0° 51° (NE) 3,921 6.2 -16.7°
Reaches altitude 10° 03:02:57 10° 57° (ENE) 2,960 5.5 -17.0°
Maximum altitude 03:09:13 48° 130° (SE) 1,406 3.4 -17.6°
Drops below altitude 10° 03:15:28 10° 204° (SSW) 2,949 5.2 -18.3°
Sets 03:18:03 0° 210° (SSW) 3,905 5.9 -18.5°
